Flag for Syria Weather past 2 weeks in Aleppo, Syria

Now
86 °F

Passing clouds.


Feels Like: 94 °F
Forecast: 72 / 104 °F
Wind: No wind

Location: Iskenderun

Current Time: Aug 23, 2014 at 9:34:33 PM

Latest Report: Aug 23, 2014 at 8:00 PM


Visibility: 9 mi

Pressure: 29.70 "Hg

Humidity: 69%

Dew point: 74 °F

Location of AleppoLocation

Historic Weather in Aleppo — Graph

°F

Aleppo temperature yesterday

Maximum temperature yesterday: 88 °F (at 3:00 PM)
Minimum temperature yesterday: 82 °F (at 3:00 AM)
Average temperature yesterday: 85 °F

Past Weeks' High & Low Weather Summary

 TemperatureHumidityPressure
High89 °F (Aug 14, 2:00 PM)81% (Aug 13, 3:00 AM)29.92 "Hg (Aug 13, 3:00 AM)
Low80 °F (Aug 10, 7:00 AM)50% (Aug 20, 4:00 PM)29.57 "Hg (Aug 17, 4:00 PM)
Average84 °F69%29.75 "Hg
* Reported Aug 8 8:00 PM — Aug 23 8:00 PM, Aleppo, Weather by CustomWeather, © 2014

Note: Actual official high and low records may vary slightly from our data, if they occured in-between our weather recording intervals... More about our weather records

Advertising

Aleppo weather history for previous 24 hours

 ConditionsComfort  
Time TempWeatherWind HumidityBarometerVisibility
8:00 PM
Aug 23
86 °FPassing clouds.No wind69%29.70 "Hg9 mi
7:00 PM86 °FScattered clouds.7 mph74%29.69 "Hg9 mi
6:00 PM87 °FPassing clouds.7 mph70%29.68 "Hg9 mi
5:00 PM88 °FPassing clouds.8 mph67%29.69 "Hg9 mi
4:00 PM88 °FPassing clouds.8 mph68%29.69 "Hg9 mi
3:00 PM88 °FPassing clouds.7 mph69%29.70 "Hg9 mi
2:00 PM87 °FPassing clouds.7 mph70%29.72 "Hg9 mi
1:00 PM87 °FSunny.6 mph68%29.72 "Hg9 mi
12:00 PM87 °FSunny.5 mph66%29.73 "Hg9 mi
11:00 AM87 °FPassing clouds.5 mph66%29.75 "Hg9 mi
10:00 AM86 °FScattered clouds.5 mph71%29.75 "Hg9 mi
9:00 AM85 °FScattered clouds.2 mph71%29.75 "Hg6 mi
8:00 AM85 °FScattered clouds.No wind71%29.75 "Hg9 mi
7:00 AM82 °FScattered clouds.No wind72%29.75 "Hg9 mi
6:00 AM82 °FOvercast.No wind69%29.75 "Hg9 mi
5:00 AM83 °FPassing clouds.No wind69%29.74 "Hg9 mi
4:00 AM83 °FPassing clouds.No wind69%29.75 "Hg9 mi
3:00 AM83 °FPassing clouds.No wind72%29.75 "Hg9 mi
2:00 AM83 °FPassing clouds.No wind75%29.76 "Hg9 mi
1:00 AM83 °FPassing clouds.No wind75%29.76 "Hg9 mi
12:00 AM83 °FPassing clouds.No wind73%29.78 "Hg9 mi
11:00 PM
Aug 22
84 °FPassing clouds.No wind71%29.78 "Hg9 mi
10:00 PM85 °FPassing clouds.2 mph71%29.79 "Hg9 mi
9:00 PM85 °FClear.3 mph71%29.78 "Hg9 mi
Weather by CustomWeather, © 2014

See weather overviewHow to use our weather pages